[[{"header":{"parameterUnit":"m.s-1","parameterCategory":1,"la1":30.2991,"la2":30.254,"lo1":-89.0895,"lo2":-89.0444,"dy":0.0017,"dx":0.0017,"nx":28,"ny":28,"refTime":"2025-09-09T09:00:00:Z","depth":0,"parameterNumber":2,"parameterNumberName":"U-component_of_WINDS"},"data":[0,0,0,0,0,0,0,0,0,0,0,0,0,0,0,0,0,0,0,0,0,0,0,0,0,0,0,0,0,0,0,0,0,0,0,0,0,0,0,0,0,0,0,0,0,0,0,0,0,0,0,0,0,0,0,0,0,0,-5.7132,-5.7132,0,-5.7179,-5.7179,-5.718,-5.7073,-5.707,-5.7067,-5.7063,-5.7111,-5.7115,-5.712,0,0,0,0,0,0,0,0,0,0,0,0,0,-5.6951,-5.6955,-5.7132,-5.7132,-5.7133,-5.7179,-5.7179,-5.718,-5.7074,-5.707,-5.7066,-5.7062,-5.7109,-5.7115,-5.712,0,0,0,0,0,0,0,0,0,0,0,0,0,-5.7017,-5.6956,-5.7132,-5.7086,-5.7082,-5.7178,-5.7179,-5.718,-5.7075,-5.707,-5.7065,-5.706,-5.7108,-5.7114,-5.7121,-5.7264,0,0,-5.7141,-5.7144,0,0,0,0,0,0,0,0,-5.7013,-5.7023,-5.7092,-5.7089,-5.7085,-5.7115,-5.7133,-5.7208,-5.7076,-5.7078,-5.7063,-5.7057,-5.7116,-5.7122,-5.7142,-5.7266,-5.7268,-5.7142,-5.7146,-5.7148,-5.715,0,0,0,0,0,0,0,-5.7009,-5.7021,-5.715,-5.7093,-5.7089,-5.7063,-5.7066,-5.7146,-5.7125,-5.7077,-5.7069,-5.7077,-5.7113,-5.7136,-5.7142,-5.7269,-5.7141,-5.7147,-5.7151,-5.7154,-5.7513,-5.7519,0,0,0,0,0,0,-5.701,-5.7018,-5.7149,-5.7152,-5.7036,-5.707,-5.7074,-5.7111,-5.7124,-5.7121,-5.7081,-5.7071,-5.7127,-5.7135,-5.7143,-5.7312,-5.7148,-5.7155,-5.7158,-5.7508,-5.7514,-5.752,0,0,0,0,0,0,-5.7007,-5.7023,-5.7147,-5.7083,-5.7096,-5.7079,-5.712,-5.7114,-5.7136,-5.7127,-5.7122,-5.7108,-5.7123,-5.7134,-5.7235,-5.7313,-5.7158,-5.7164,-5.7501,-5.751,-5.7517,-5.7651,0,0,0,0,0,0,-5.7002,-5.7022,-5.7076,-5.7085,-5.71,-5.7238,-5.7125,-5.7119,-5.7148,-5.7136,-5.7151,-5.7148,-5.712,-5.7226,-5.7242,-5.7319,-5.7169,-5.7494,-5.7505,-5.7515,-5.764,-5.7663,-5.7683,0,0,0,0,0,-5.6996,-5.7112,-5.708,-5.7096,-5.7168,-5.7243,-5.7251,-5.7217,-5.7155,-5.7209,-5.7203,-5.7148,-5.7302,-5.7237,-5.7254,-5.7334,-5.7489,-5.7502,-5.7514,-5.763,-5.7659,-5.7683,0,0,0,0,0,0,-5.7112,-5.7112,-5.7076,-5.7198,-5.7222,-5.7224,-5.7292,-5.7248,-5.7289,-5.7276,-5.7231,-5.7236,-5.7345,-5.7349,-5.7277,-5.7474,-5.7385,-5.7401,-5.7467,-5.7494,-5.7515,-5.7512,-5.7174,0,0,0,0,0,-5.7152,-5.7213,-5.721,-5.7318,-5.7331,-5.731,-5.7341,-5.7313,-5.7335,-5.7344,-5.7345,-5.7368,-5.7422,-5.7458,-5.7507,-5.764,-5.7642,-5.7704,-5.7725,-5.7743,-5.7758,-5.783,-5.7857,-5.7562,-5.7561,-5.7561,0,0,-5.7236,-5.7243,-5.7284,-5.7342,-5.7356,-5.742,-5.7319,-5.7391,-5.7438,-5.7355,-5.745,-5.7452,-5.7475,-5.7593,-5.7645,-5.76,-5.784,-5.7759,-5.7773,-5.7779,-5.7845,-5.7874,-5.7898,-5.757,-5.7568,-5.7567,0,0,-5.742,-5.7432,-5.7523,-5.754,-5.7564,-5.7549,-5.7571,-5.7581,-5.7579,-5.7675,-5.7614,-5.7669,-5.7762,-5.7781,-5.7803,-5.7997,-5.7947,-5.8014,-5.8127,-5.8197,-5.822,-5.8241,-5.831,-5.8336,-5.8028,-5.8029,-5.8029,0,-5.7521,-5.7615,-5.7576,-5.7653,-5.768,-5.7608,-5.7701,-5.7719,-5.7757,-5.7778,-5.7727,-5.7843,-5.7853,-5.7975,-5.8023,-5.8043,-5.8067,-5.8012,-5.822,-5.824,-5.8259,-5.8325,-5.8351,-5.8037,-5.8036,-5.8035,-5.8034,0,-5.7738,-5.7804,-5.7875,-5.7915,-5.795,-5.8035,-5.8009,-5.8049,-5.8018,-5.8009,-5.8107,-5.8117,-5.8167,-5.8194,-5.8164,-5.8312,-5.8284,-5.8228,-5.8137,-5.8296,-5.8357,-5.8382,-5.8048,-5.8045,-5.8043,-5.8041,0,0,-5.7996,-5.8014,-5.8041,-5.8058,-5.8079,-5.813,-5.8211,-5.826,-5.8296,-5.8325,-5.8393,-5.8474,-5.8422,-5.8447,-5.8419,-5.8481,-5.8634,-5.8417,-5.8417,-5.8457,-5.8799,-5.8842,-5.8871,-5.8602,-5.8606,-5.861,-5.8797,0,-5.8179,-5.832,-5.8288,-5.8426,-5.8487,-5.842,-5.8491,-5.8512,-5.8506,-5.8557,-5.855,-5.8608,-5.8535,-5.855,-5.8608,-5.8603,-5.8702,-5.8589,-5.8664,-5.8668,-5.8661,-5.8903,-5.8948,-5.9124,-5.8821,-5.8825,-5.8828,0,-5.8411,-5.845,-5.8595,-5.8607,-5.8631,-5.8696,-5.8739,-5.8788,-5.8811,-5.8802,-5.8831,-5.8791,-5.8872,-5.8781,-5.8892,-5.8816,-5.8845,-5.8847,-5.8853,-5.8859,-5.8758,-5.8916,-5.9179,-5.9206,-5.8865,-5.8862,-5.8859,0,-5.8587,-5.8675,-5.8773,-5.879,-5.8806,-5.8853,-5.8862,-5.8879,-5.8911,-5.8949,-5.8969,-5.9016,-5.9041,-5.9079,-5.9052,-5.8988,-5.9168,-5.9075,-5.9164,-5.9165,-5.9205,-5.9202,-5.9477,-5.9223,-5.9223,-5.9222,-5.9222,0,-5.8795,-5.8886,-5.8852,-5.8913,-5.9013,-5.8976,-5.9076,-5.9077,-5.9093,-5.9153,-5.9098,-5.9155,-5.9116,-5.9171,-5.9151,-5.9246,-5.9258,-5.9254,-5.9247,-5.9259,-5.926,-5.9277,-5.9264,-5.9229,-5.9228,-5.9226,-5.9225,0,-5.9007,-5.8988,-5.9091,-5.9098,-5.9102,-5.9176,-5.9182,-5.9238,-5.9228,-5.9305,-5.932,-5.9305,-5.9366,-5.9343,-5.9408,-5.9395,-5.9517,-5.9495,-5.951,-5.9504,-5.9595,-5.9587,-5.989,-5.9929,-5.965,-5.9653,-5.9655,0,-5.9141,-5.921,-5.9225,-5.9261,-5.9274,-5.9333,-5.9366,-5.9332,-5.9368,-5.9399,-5.9452,-5.9508,-5.9551,-5.9652,-5.9647,-5.9697,-5.9675,-5.9778,-5.9682,-5.9692,-5.9677,-5.9674,-5.9681,-5.9797,-5.98,-5.9803,-5.9805,0,-5.9382,-5.9369,-5.9418,-5.9465,-5.9505,-5.954,-5.957,-5.9603,-5.957,-5.9614,-5.9676,-5.971,-5.9776,-5.9833,-5.9878,-5.9887,-5.9842,-5.9836,-5.9859,-5.9872,-5.9878,-5.9876,-5.9563,-5.9829,-5.9826,-5.9825,-5.9823,-5.9822,-5.9559,-5.9618,-5.9638,-5.9695,-5.9714,-5.9743,-5.9797,-5.9794,-5.9845,-5.9897,-5.9873,-5.9946,-5.9967,-6.0022,-6.0038,-6.0094,-6.0054,-6.0087,-6.0096,-6.0105,-6.0117,-5.9869,-6.0102,-6.0101,-6.01,-6.01,-6.0099,0,-5.9797,-5.9807,-5.986,-5.9904,-5.9949,-5.9902,-5.9933,-5.9974,-6.0038,-6.0062,-6.0106,-6.0177,-6.0233,-6.0232,-6.0283,-6.0328,-6.0309,-6.0343,-6.0339,-6.0342,-6.0149,-6.0124,-6.0358,-6.0358,-6.0358,-6.0358,-6.0358,-6.0358,-5.9926,-6.0023,-6.0013,-6.0119,-6.0127,-6.0198,-6.022,-6.0247,-6.0266,-6.0348,-6.0394,-6.0393,-6.0408,-6.046,-6.0508,-6.0507,-6.0528,-6.0571,-6.0561,-6.0381,-6.0356,-6.0331,-6.0307,-6.0576,-6.0576,-6.0749,-6.0751,-6.0752]},{"header":{"parameterUnit":"m.s-1","parameterCategory":1,"la1":30.2991,"la2":30.254,"lo1":-89.0895,"lo2":-89.0444,"dy":0.0017,"dx":0.0017,"nx":28,"ny":28,"refTime":"2025-09-09T09:00:00:Z","depth":0,"parameterNumber":3,"parameterNumberName":"V-component_of_WINDS"},"data":[0,0,0,0,0,0,0,0,0,0,0,0,0,0,0,0,0,0,0,0,0,0,0,0,0,0,0,0,0,0,0,0,0,0,0,0,0,0,0,0,0,0,0,0,0,0,0,0,0,0,0,0,0,0,0,0,0,0,-0.7813,-0.7813,0,-0.7846,-0.7847,-0.7847,-0.7808,-0.7806,-0.7805,-0.7803,-0.7844,-0.7846,-0.7849,0,0,0,0,0,0,0,0,0,0,0,0,0,-0.7718,-0.772,-0.7813,-0.7813,-0.7814,-0.7846,-0.7847,-0.7847,-0.7808,-0.7806,-0.7804,-0.7803,-0.7843,-0.7846,-0.7849,0,0,0,0,0,0,0,0,0,0,0,0,0,-0.7757,-0.7721,-0.7813,-0.7798,-0.7797,-0.7846,-0.7847,-0.7847,-0.7808,-0.7806,-0.7804,-0.7802,-0.7842,-0.7846,-0.785,-0.7917,0,0,-0.7861,-0.7863,0,0,0,0,0,0,0,0,-0.7755,-0.776,-0.7799,-0.7799,-0.7798,-0.782,-0.7828,-0.7871,-0.7809,-0.7804,-0.7803,-0.7801,-0.7838,-0.7842,-0.7854,-0.7919,-0.7921,-0.7861,-0.7863,-0.7865,-0.7866,0,0,0,0,0,0,0,-0.7752,-0.7759,-0.7826,-0.78,-0.7799,-0.7791,-0.7794,-0.7836,-0.7834,-0.7804,-0.7801,-0.7806,-0.7838,-0.785,-0.7854,-0.7922,-0.7861,-0.7864,-0.7867,-0.7868,-0.8044,-0.8046,0,0,0,0,0,0,-0.775,-0.7757,-0.7825,-0.7827,-0.777,-0.7794,-0.7797,-0.7816,-0.7833,-0.7833,-0.7808,-0.7804,-0.7845,-0.785,-0.7856,-0.7936,-0.7865,-0.7869,-0.7871,-0.8042,-0.8045,-0.8047,0,0,0,0,0,0,-0.7748,-0.7757,-0.7824,-0.7791,-0.7799,-0.7798,-0.7819,-0.7817,-0.783,-0.7835,-0.7835,-0.7821,-0.7843,-0.785,-0.7902,-0.7937,-0.787,-0.7874,-0.8039,-0.8042,-0.8046,-0.8098,0,0,0,0,0,0,-0.7746,-0.7756,-0.7781,-0.7792,-0.7801,-0.7868,-0.7821,-0.782,-0.7836,-0.7831,-0.7848,-0.7848,-0.7842,-0.7896,-0.7905,-0.7941,-0.7877,-0.8036,-0.804,-0.8045,-0.8093,-0.8103,-0.8111,0,0,0,0,0,-0.7743,-0.7796,-0.7783,-0.7791,-0.7832,-0.787,-0.7876,-0.7866,-0.7839,-0.7864,-0.7867,-0.7848,-0.7931,-0.7902,-0.7912,-0.7949,-0.8033,-0.8039,-0.8044,-0.8089,-0.8101,-0.8111,0,0,0,0,0,0,-0.7793,-0.7797,-0.7783,-0.7841,-0.7855,-0.7863,-0.7896,-0.7879,-0.7903,-0.7897,-0.7886,-0.789,-0.7944,-0.7952,-0.7919,-0.8015,-0.7978,-0.7986,-0.8009,-0.802,-0.8029,-0.8027,-0.788,0,0,0,0,0,-0.781,-0.7839,-0.7842,-0.7893,-0.7901,-0.7897,-0.7914,-0.7904,-0.7919,-0.7926,-0.7933,-0.795,-0.798,-0.8,-0.8028,-0.8093,-0.8097,-0.8124,-0.8133,-0.814,-0.8148,-0.8183,-0.8195,-0.8065,-0.8065,-0.8065,0,0,-0.7847,-0.7853,-0.7873,-0.7903,-0.7913,-0.7945,-0.7903,-0.7939,-0.7962,-0.7932,-0.798,-0.7986,-0.8004,-0.8063,-0.8089,-0.8071,-0.8184,-0.8147,-0.8153,-0.8157,-0.819,-0.8202,-0.8213,-0.8069,-0.8068,-0.8068,0,0,-0.7931,-0.7938,-0.7981,-0.7991,-0.8005,-0.8002,-0.8012,-0.8023,-0.8025,-0.8072,-0.805,-0.8079,-0.8131,-0.8144,-0.8158,-0.8244,-0.8228,-0.8254,-0.8303,-0.8337,-0.8347,-0.8356,-0.8388,-0.8399,-0.8261,-0.8261,-0.8261,0,-0.7976,-0.8021,-0.8006,-0.8043,-0.8057,-0.8028,-0.8072,-0.8083,-0.8107,-0.8118,-0.8097,-0.816,-0.817,-0.8231,-0.8252,-0.8264,-0.8276,-0.8253,-0.8346,-0.8355,-0.8364,-0.8394,-0.8406,-0.8264,-0.8264,-0.8264,-0.8263,0,-0.8076,-0.8108,-0.8141,-0.8162,-0.818,-0.8221,-0.8212,-0.8233,-0.8221,-0.822,-0.8269,-0.828,-0.8309,-0.8322,-0.8313,-0.8382,-0.837,-0.8348,-0.8311,-0.8379,-0.8408,-0.8419,-0.8269,-0.8268,-0.8267,-0.8266,0,0,-0.8195,-0.8204,-0.8217,-0.8226,-0.8239,-0.8264,-0.8303,-0.8329,-0.8347,-0.8364,-0.8397,-0.844,-0.8419,-0.8435,-0.8426,-0.8456,-0.8524,-0.8429,-0.8429,-0.8447,-0.8602,-0.862,-0.8634,-0.8512,-0.8514,-0.8515,-0.8601,0,-0.8279,-0.8345,-0.8331,-0.8396,-0.8426,-0.8397,-0.8431,-0.8444,-0.8443,-0.847,-0.847,-0.8501,-0.847,-0.8479,-0.8507,-0.851,-0.8555,-0.8503,-0.8545,-0.8546,-0.8542,-0.8648,-0.8668,-0.8748,-0.8612,-0.8613,-0.8615,0,-0.8387,-0.8405,-0.8473,-0.848,-0.8492,-0.8522,-0.8545,-0.8569,-0.8583,-0.858,-0.8597,-0.8582,-0.8622,-0.8582,-0.8637,-0.8602,-0.8618,-0.8622,-0.8625,-0.863,-0.8586,-0.8658,-0.8773,-0.8786,-0.8632,-0.863,-0.8629,0,-0.8468,-0.851,-0.8555,-0.8564,-0.8573,-0.8595,-0.86,-0.8611,-0.8627,-0.8647,-0.8657,-0.8682,-0.8697,-0.8717,-0.871,-0.8681,-0.8767,-0.8727,-0.8768,-0.8768,-0.8789,-0.8788,-0.891,-0.8797,-0.8797,-0.8796,-0.8796,0,-0.8565,-0.8608,-0.8591,-0.862,-0.8667,-0.8651,-0.8698,-0.87,-0.8709,-0.8738,-0.8715,-0.8744,-0.8731,-0.8759,-0.8753,-0.8801,-0.8807,-0.8808,-0.8806,-0.8811,-0.8811,-0.8822,-0.8817,-0.88,-0.8799,-0.8798,-0.8798,0,-0.8664,-0.8655,-0.8703,-0.8706,-0.8708,-0.8743,-0.8746,-0.8773,-0.877,-0.8807,-0.8815,-0.8811,-0.8842,-0.8836,-0.8871,-0.8867,-0.8926,-0.8917,-0.8922,-0.892,-0.8962,-0.8959,-0.9097,-0.9115,-0.8988,-0.899,-0.8991,0,-0.8728,-0.8759,-0.8765,-0.8782,-0.8788,-0.8815,-0.8831,-0.8816,-0.8834,-0.885,-0.8875,-0.8903,-0.8926,-0.8977,-0.8978,-0.9005,-0.8997,-0.9044,-0.9001,-0.9005,-0.8999,-0.8998,-0.9002,-0.9053,-0.9055,-0.9056,-0.9057,0,-0.8841,-0.8834,-0.8856,-0.8877,-0.8896,-0.8912,-0.8926,-0.8941,-0.8927,-0.8948,-0.8978,-0.8995,-0.9029,-0.9058,-0.9082,-0.9089,-0.9072,-0.9069,-0.9081,-0.9087,-0.9088,-0.9089,-0.8946,-0.9067,-0.9066,-0.9065,-0.9065,-0.9064,-0.8925,-0.8952,-0.8959,-0.8985,-0.8993,-0.9006,-0.9032,-0.903,-0.9054,-0.908,-0.9069,-0.9104,-0.9116,-0.9146,-0.9156,-0.9184,-0.9167,-0.9183,-0.9187,-0.9192,-0.9197,-0.9082,-0.9188,-0.9188,-0.9187,-0.9187,-0.9187,0,-0.9038,-0.9041,-0.9064,-0.9083,-0.9104,-0.9081,-0.9095,-0.9114,-0.9145,-0.9156,-0.9177,-0.9212,-0.9239,-0.9242,-0.9268,-0.929,-0.9282,-0.9298,-0.9297,-0.9299,-0.9211,-0.9199,-0.9303,-0.9303,-0.9303,-0.9303,-0.9303,-0.9303,-0.9099,-0.9143,-0.9137,-0.9185,-0.9188,-0.922,-0.923,-0.9242,-0.9251,-0.929,-0.9312,-0.9312,-0.932,-0.9346,-0.9371,-0.9371,-0.9383,-0.9401,-0.9399,-0.9317,-0.9305,-0.9294,-0.9283,-0.9403,-0.9404,-0.9485,-0.9485,-0.9486]}]]